Location: Unspecified
(0.0000°N, 0.0000°E)
Time: 15:56:20
(UTC+00:00)

Vanguard 1 - Visible Passes

Search period start: 13 December 2018 00:00
Search period end: 23 December 2018 00:00
Orbit: 650 x 3833 km, 34.2° (Epoch: 12 December)

Date Brightness Start Highest point End Pass type
(mag) Time Alt. Az. Time Alt. Az. Time Alt. Az.
13 Dec 11.4 04:00:42 15° NNE 04:00:42 15° NNE 04:01:28 10° NNE visible
13 Dec 14.0 18:13:30 10° W 18:32:23 30° SSW 18:49:21 10° SSE visible
13 Dec 13.8 20:56:04 10° SW 21:04:22 14° S 21:11:13 10° SSE visible
13 Dec 13.3 23:28:21 10° SSW 23:32:29 14° S 23:32:29 14° S visible
14 Dec 11.5 04:21:17 11° N 04:21:17 11° N 04:21:33 10° NNE visible
14 Dec 14.0 18:38:02 10° WSW 18:55:17 25° SSW 19:10:21 10° SSE visible
14 Dec 13.7 21:20:35 10° SSW 21:27:45 13° S 21:33:40 10° SSE visible
14 Dec 13.3 23:48:43 10° SSW 23:51:49 15° S 23:51:49 15° S visible
15 Dec 14.0 19:03:14 10° WSW 19:18:33 21° SSW 19:31:37 10° SSE visible
15 Dec 13.5 21:43:29 10° SSW 21:50:59 14° S 21:56:59 10° SSE visible
16 Dec 13.3 00:09:17 10° SSW 00:11:11 14° SSW 00:11:11 14° SSW visible
16 Dec 13.9 19:28:43 10° SW 19:42:06 18° SSW 19:53:17 10° SSE visible
16 Dec 13.3 22:05:14 10° SSW 22:13:58 16° S 22:17:52 14° SSE visible
17 Dec 13.5 00:30:04 10° SW 00:30:32 11° SW 00:30:32 11° SW visible
17 Dec 13.8 19:53:50 10° SW 20:05:48 16° S 20:15:35 10° SSE visible
17 Dec 13.1 22:26:28 10° SSW 22:36:38 20° SSE 22:37:14 20° SSE visible
18 Dec 13.7 20:17:58 10° SW 20:29:27 16° S 20:38:34 10° SE visible
18 Dec 13.0 22:47:31 10° SSW 22:56:36 24° S 22:56:36 24° S visible
19 Dec 14.1 18:03:09 10° WSW 18:18:59 21° SSW 18:33:45 10° SSE visible
19 Dec 13.5 20:40:56 10° SSW 20:52:54 18° S 21:01:58 10° SE visible
19 Dec 13.0 23:08:31 10° SW 23:16:00 25° SSW 23:16:00 25° SSW visible
20 Dec 14.0 18:28:03 10° SW 18:42:49 19° S 18:56:00 10° SSE visible
20 Dec 13.2 21:03:02 10° SSW 21:16:03 21° SSE 21:22:43 15° SE visible
20 Dec 13.1 23:29:37 10° SW 23:35:23 24° SSW 23:35:23 24° SSW visible
21 Dec 13.9 18:52:35 10° SW 19:06:46 18° S 19:18:54 10° SE visible
21 Dec 13.0 21:24:37 10° SSW 21:38:51 25° SSE 21:42:08 23° SE visible
21 Dec 13.3 23:50:54 10° SW 23:54:48 20° SW 23:54:48 20° SW visible
22 Dec 13.7 19:16:17 10° SW 19:30:38 19° S 19:42:20 10° SE visible
22 Dec 12.8 21:45:57 10° SW 22:01:20 31° SSE 22:01:33 31° SSE visible
